• în România
  • Lista ţărilor
  • Pe 7 zile
  • Temperatura apei
  • Hartă satelitară
  • Meteo pe hartă
  • Widget-uri
  • user-avatar
    Intrare

    Meteo pe oră la Malanje

    Astăzi, 25 Mai, Vineri

    Timp Temperatura Precipitaţii Vânt Presiune Umiditate
    00:00 +19°C° 0 mm 1 m/s 665 mmHg 63%
    01:00 +19°C° 0 mm 1 m/s 665 mmHg 67%
    02:00 +19°C° 0 mm 1 m/s 665 mmHg 69%
    03:00 +18°C° 0 mm 1 m/s 665 mmHg 72%
    04:00 +18°C° 0 mm 1 m/s 664 mmHg 74%
    05:00 +18°C° 0 mm 1 m/s 665 mmHg 74%
    06:00 +18°C° 0 mm 1 m/s 665 mmHg 75%
    07:00 +18°C° 0 mm 1 m/s 665 mmHg 75%
    08:00 +21°C° 0 mm 1 m/s 666 mmHg 65%
    09:00 +24°C° 0 mm 2 m/s 666 mmHg 55%
    10:00 +27°C° 0 mm 2 m/s 667 mmHg 45%
    11:00 +28°C° 0 mm 2 m/s 667 mmHg 41%
    12:00 +30°C° 0 mm 2 m/s 667 mmHg 36%
    13:00 +31°C° 0 mm 2 m/s 666 mmHg 31%
    14:00 +31°C° 0 mm 1 m/s 666 mmHg 32%
    15:00 +30°C° 0 mm 1 m/s 665 mmHg 32%
    16:00 +28°C° 0 mm 0 m/s 665 mmHg 32%
    17:00 +26°C° 0 mm 0 m/s 665 mmHg 37%
    18:00 +25°C° 0 mm 1 m/s 664 mmHg 41%
    19:00 +22°C° 0 mm 1 m/s 664 mmHg 46%
    20:00 +22°C° 0 mm 1 m/s 664 mmHg 47%
    21:00 +21°C° 0 mm 1 m/s 665 mmHg 48%
    22:00 +19°C° 0 mm 0 m/s 665 mmHg 50%
    23:00 +20°C° 0 mm 1 m/s 665 mmHg 52%

    Mâine, 26 Mai, Sâmbătă

    Timp Temperatura Precipitaţii Vânt Presiune Umiditate
    00:00 +20°C° 0 mm 1 m/s 665 mmHg 54%
    01:00 +19°C° 0 mm 1 m/s 665 mmHg 56%
    02:00 +19°C° 0 mm 1 m/s 665 mmHg 57%
    03:00 +19°C° 0 mm 1 m/s 665 mmHg 59%
    04:00 +18°C° 0 mm 1 m/s 664 mmHg 60%
    05:00 +18°C° 0 mm 1 m/s 665 mmHg 62%
    06:00 +19°C° 0 mm 1 m/s 665 mmHg 64%
    07:00 +19°C° 0 mm 1 m/s 666 mmHg 66%
    08:00 +20°C° 0 mm 2 m/s 666 mmHg 58%
    09:00 +24°C° 0 mm 2 m/s 667 mmHg 50%
    10:00 +27°C° 0 mm 3 m/s 668 mmHg 41%
    11:00 +28°C° 0 mm 3 m/s 667 mmHg 38%
    12:00 +30°C° 0 mm 2 m/s 667 mmHg 35%
    13:00 +31°C° 0 mm 2 m/s 667 mmHg 32%
    14:00 +30°C° 0 mm 2 m/s 666 mmHg 34%
    15:00 +30°C° 0 mm 2 m/s 666 mmHg 35%
    16:00 +29°C° 0 mm 1 m/s 665 mmHg 37%
    17:00 +28°C° 0 mm 1 m/s 665 mmHg 40%
    18:00 +26°C° 0 mm 1 m/s 665 mmHg 44%
    19:00 +24°C° 0 mm 1 m/s 666 mmHg 48%
    20:00 +24°C° 0 mm 1 m/s 666 mmHg 47%
    21:00 +24°C° 0 mm 1 m/s 666 mmHg 47%
    22:00 +24°C° 0 mm 1 m/s 667 mmHg 47%
    23:00 +23°C° 0 mm 1 m/s 667 mmHg 48%

    Poimâine, 27 Mai, Duminică

    Timp Temperatura Precipitaţii Vânt Presiune Umiditate
    00:00 +23°C° 0 mm 1 m/s 667 mmHg 49%
    01:00 +22°C° 0 mm 1 m/s 666 mmHg 49%
    02:00 +22°C° 0 mm 1 m/s 666 mmHg 51%
    03:00 +21°C° 0 mm 1 m/s 666 mmHg 52%
    04:00 +20°C° 0 mm 1 m/s 665 mmHg 54%
    05:00 +20°C° 0 mm 1 m/s 666 mmHg 56%
    06:00 +20°C° 0 mm 1 m/s 666 mmHg 59%
    07:00 +20°C° 0 mm 1 m/s 666 mmHg 61%
    08:00 +23°C° 0 mm 2 m/s 667 mmHg 53%
    09:00 +25°C° 0 mm 3 m/s 668 mmHg 45%
    10:00 +28°C° 0 mm 3 m/s 669 mmHg 37%
    11:00 +29°C° 0 mm 3 m/s 668 mmHg 34%
    12:00 +30°C° 0 mm 2 m/s 668 mmHg 32%
    13:00 +31°C° 0 mm 2 m/s 667 mmHg 29%
    14:00 +31°C° 0 mm 2 m/s 667 mmHg 32%
    15:00 +30°C° 0 mm 1 m/s 666 mmHg 34%
    16:00 +29°C° 0 mm 1 m/s 666 mmHg 36%
    17:00 +28°C° 0 mm 1 m/s 666 mmHg 39%
    18:00 +26°C° 0 mm 1 m/s 666 mmHg 42%
    19:00 +24°C° 0 mm 1 m/s 666 mmHg 44%
    20:00 +24°C° 0 mm 1 m/s 667 mmHg 45%
    21:00 +23°C° 0 mm 1 m/s 667 mmHg 45%
    22:00 +23°C° 0 mm 1 m/s 667 mmHg 45%
    23:00 +23°C° 0 mm 1 m/s 667 mmHg 46%

    28 Mai, Luni

    Timp Temperatura Precipitaţii Vânt Presiune Umiditate
    00:00 +22°C° 0 mm 1 m/s 667 mmHg 47%
    01:00 +22°C° 0 mm 1 m/s 667 mmHg 48%
    02:00 +21°C° 0 mm 1 m/s 667 mmHg 50%
    03:00 +20°C° 0 mm 1 m/s 666 mmHg 52%
    04:00 +20°C° 0 mm 1 m/s 666 mmHg 54%
    05:00 +20°C° 0 mm 1 m/s 666 mmHg 55%
    06:00 +20°C° 0 mm 1 m/s 667 mmHg 56%
    07:00 +20°C° 0 mm 1 m/s 667 mmHg 57%
    08:00 +23°C° 0 mm 2 m/s 668 mmHg 51%
    09:00 +25°C° 0 mm 2 m/s 669 mmHg 44%
    10:00 +28°C° 0 mm 3 m/s 669 mmHg 38%
    11:00 +29°C° 0 mm 2 m/s 669 mmHg 35%
    12:00 +30°C° 0 mm 2 m/s 668 mmHg 32%
    13:00 +32°C° 0 mm 2 m/s 668 mmHg 28%
    14:00 +31°C° 0 mm 1 m/s 667 mmHg 29%
    15:00 +31°C° 0 mm 1 m/s 667 mmHg 29%
    16:00 +31°C° 0 mm 1 m/s 666 mmHg 30%
    17:00 +26°C° 0 mm 0 m/s 666 mmHg 34%
    18:00 +24°C° 0 mm 0 m/s 666 mmHg 39%
    19:00 +21°C° 0 mm 0 m/s 666 mmHg 44%
    20:00 +21°C° 0 mm 0 m/s 666 mmHg 45%
    21:00 +20°C° 0 mm 0 m/s 667 mmHg 47%
    22:00 +21°C° 0 mm 1 m/s 667 mmHg 48%
    23:00 +21°C° 0 mm 1 m/s 667 mmHg 50%

    29 Mai, Marţi

    Timp Temperatura Precipitaţii Vânt Presiune Umiditate
    00:00 +20°C° 0 mm 1 m/s 666 mmHg 52%
    01:00 +20°C° 0 mm 1 m/s 666 mmHg 54%
    02:00 +19°C° 0 mm 1 m/s 666 mmHg 58%
    03:00 +19°C° 0 mm 1 m/s 666 mmHg 61%
    04:00 +18°C° 0 mm 1 m/s 666 mmHg 64%
    05:00 +18°C° 0 mm 1 m/s 666 mmHg 63%
    06:00 +18°C° 0 mm 1 m/s 666 mmHg 62%
    07:00 +18°C° 0 mm 2 m/s 667 mmHg 61%
    08:00 +21°C° 0 mm 2 m/s 667 mmHg 54%
    09:00 +25°C° 0 mm 3 m/s 668 mmHg 47%
    10:00 +28°C° 0 mm 3 m/s 669 mmHg 40%
    11:00 +29°C° 0 mm 3 m/s 668 mmHg 37%
    12:00 +31°C° 0 mm 3 m/s 668 mmHg 33%
    13:00 +32°C° 0 mm 2 m/s 667 mmHg 30%
    14:00 +32°C° 0 mm 2 m/s 666 mmHg 30%
    15:00 +32°C° 0 mm 1 m/s 666 mmHg 30%
    16:00 +32°C° 0 mm 1 m/s 665 mmHg 31%
    17:00 +29°C° 0 mm 1 m/s 665 mmHg 36%
    18:00 +26°C° 0 mm 1 m/s 665 mmHg 41%
    19:00 +22°C° 0 mm 0 m/s 665 mmHg 46%
    20:00 +21°C° 0 mm 0 m/s 666 mmHg 48%
    21:00 +21°C° 0 mm 0 m/s 666 mmHg 49%
    22:00 +20°C° 0 mm 0 m/s 666 mmHg 51%
    23:00 +19°C° 0 mm 0 m/s 666 mmHg 53%

    30 Mai, Miercuri

    Timp Temperatura Precipitaţii Vânt Presiune Umiditate
    00:00 +19°C° 0 mm 0 m/s 665 mmHg 55%
    01:00 +18°C° 0 mm 0 m/s 665 mmHg 57%
    02:00 +18°C° 0 mm 0 m/s 665 mmHg 59%
    03:00 +19°C° 0 mm 1 m/s 665 mmHg 62%
    04:00 +19°C° 0 mm 1 m/s 665 mmHg 64%
    05:00 +19°C° 0 mm 1 m/s 665 mmHg 63%
    06:00 +19°C° 0 mm 1 m/s 666 mmHg 63%
    07:00 +20°C° 0 mm 1 m/s 666 mmHg 62%
    08:00 +23°C° 0 mm 1 m/s 667 mmHg 54%
    09:00 +26°C° 0 mm 2 m/s 668 mmHg 46%
    10:00 +29°C° 0 mm 2 m/s 668 mmHg 38%
    11:00 +30°C° 0 mm 2 m/s 668 mmHg 35%
    12:00 +32°C° 0 mm 1 m/s 667 mmHg 32%
    13:00 +33°C° 0 mm 1 m/s 667 mmHg 29%
    14:00 +33°C° 0 mm 1 m/s 666 mmHg 29%
    15:00 +32°C° 0 mm 1 m/s 666 mmHg 29%
    16:00 +32°C° 0 mm 1 m/s 665 mmHg 29%
    17:00 +29°C° 0 mm 1 m/s 665 mmHg 34%
    18:00 +27°C° 0 mm 1 m/s 665 mmHg 38%
    19:00 +24°C° 0 mm 1 m/s 665 mmHg 43%
    20:00 +23°C° 0 mm 1 m/s 665 mmHg 44%
    21:00 +23°C° 0 mm 1 m/s 666 mmHg 46%
    22:00 +22°C° 0 mm 1 m/s 666 mmHg 47%
    23:00 +22°C° 0 mm 1 m/s 666 mmHg 51%
    Arată mai mult